GW4040 Weather Reports


time (UTC)temp
C
wind
direction
speed
KPH
gust
KPH
rain 1hr
cm
rain 24hr
cm
rain mn
cm
humidity
%
barometer
mb
20260504082003 2 326 0.0 0.0 0.00 0.00 0.00 84 1014.0
20260504081524 2 310 0.0 0.0 0.00 0.00 0.00 84 1014.1
20260504081008 2 310 0.0 0.0 0.00 0.00 0.00 83 1014.1
20260504080509 2 310 0.0 0.0 0.00 0.00 0.00 83 1014.0
20260504050510 5 240 0.0 0.0 0.00 0.00 0.00 74 1014.1
20260504050016 4 240 0.0 0.0 0.00 0.00 0.00 74 1014.2
20260504045507 4 240 0.0 0.0 0.00 0.00 0.00 74 1014.2
20260504045007 4 240 0.0 0.0 0.00 0.00 0.00 75 1014.2
20260504044502 4 240 0.0 0.0 0.00 0.00 0.00 74 1014.1
20260504044003 4 240 0.0 0.0 0.00 0.00 0.00 73 1014.1
20260504043503 5 240 0.0 0.0 0.00 0.00 0.00 73 1014.1
20260504043009 5 240 0.0 0.0 0.00 0.00 0.00 73 1014.1
20260504042503 5 240 0.0 0.0 0.00 0.00 0.00 74 1014.1
20260504042006 5 240 0.0 0.0 0.00 0.00 0.00 72 1014.1
20260504041519 5 240 0.0 0.0 0.00 0.00 0.00 72 1014.0
20260504041005 5 240 0.0 0.0 0.00 0.00 0.00 71 1013.9
20260504040504 5 240 0.0 0.0 0.00 0.00 0.00 70 1013.9
20260504040004 5 240 0.0 0.0 0.00 0.00 0.00 70 1014.0
20260504035503 6 240 0.0 0.0 0.00 0.00 0.00 70 1013.9
20260504035005 5 240 0.0 0.0 0.00 0.00 0.00 69 1013.9
20260504034520 5 240 0.0 0.0 0.00 0.00 0.00 69 1013.9
20260504034002 5 240 0.0 0.0 0.00 0.00 0.00 70 1014.1
20260504033505 5 240 0.0 1.6 0.00 0.00 0.00 72 1014.0
20260504033035 5 240 0.0 1.6 0.00 0.00 0.00 72 1014.0
20260504032509 5 240 0.0 0.0 0.00 0.00 0.00 72 1013.8
20260504032003 5 240 0.0 0.0 0.00 0.00 0.00 73 1013.9
20260504031506 5 240 0.0 0.0 0.00 0.00 0.00 71 1013.8
20260504031005 5 240 0.0 0.0 0.00 0.00 0.00 70 1013.8
20260504030507 5 240 0.0 0.0 0.00 0.00 0.00 70 1013.7
20260504030017 5 240 0.0 0.0 0.00 0.00 0.00 69 1013.7
20260504025507 6 240 0.0 1.6 0.00 0.00 0.00 68 1013.7
20260504025007 6 240 1.6 1.6 0.00 0.00 0.00 69 1013.7
20260504024540 6 279 0.0 1.6 0.00 0.00 0.00 68 1013.7
20260504024007 6 279 0.0 1.6 0.00 0.00 0.00 68 1013.6
20260504023504 6 279 0.0 1.6 0.00 0.00 0.00 68 1013.7
20260504023008 6 279 0.0 1.6 0.00 0.00 0.00 68 1013.6
20260504022503 6 279 0.0 0.0 0.00 0.00 0.00 68 1013.6
20260504022007 6 279 0.0 0.0 0.00 0.00 0.00 66 1013.6
20260504021519 6 279 0.0 0.0 0.00 0.00 0.00 67 1013.6
20260504021005 6 279 0.0 0.0 0.00 0.00 0.00 67 1013.6
20260504020509 6 279 0.0 0.0 0.00 0.00 0.00 68 1013.6
20260504020026 6 279 0.0 0.0 0.00 0.00 0.00 68 1013.6
20260504015502 6 279 0.0 0.0 0.00 0.00 0.00 68 1013.5
20260504015003 6 279 0.0 0.0 0.00 0.00 0.00 66 1013.5
20260504014512 6 279 0.0 0.0 0.00 0.00 0.00 64 1013.5
20260504014005 6 279 0.0 0.0 0.00 0.00 0.00 62 1013.4
20260504013506 7 279 0.0 0.0 0.00 0.00 0.00 62 1013.4
20260504013023 7 279 0.0 0.0 0.00 0.00 0.00 61 1013.3
20260504012507 7 279 0.0 0.0 0.00 0.00 0.00 61 1013.4
20260504012008 8 279 0.0 0.0 0.00 0.00 0.00 61 1013.3
20260504011504 8 279 0.0 0.0 0.00 0.00 0.00 59 1013.2
20260504011003 8 279 0.0 0.0 0.00 0.00 0.00 58 1013.2
20260504010505 8 279 0.0 0.0 0.00 0.00 0.00 58 1013.2
20260504010014 8 279 0.0 0.0 0.00 0.00 0.00 57 1013.2
20260504005506 8 279 0.0 1.6 0.00 0.00 0.00 57 1013.2
20260504005008 8 279 0.0 1.6 0.00 0.00 0.00 58 1013.2
20260504004538 9 279 0.0 0.0 0.00 0.00 0.00 57 1013.2
20260504004005 9 279 0.0 0.0 0.00 0.00 0.00 56 1013.1
20260504003512 10 279 0.0 0.0 0.00 0.00 0.00 54 1013.1
20260504003006 10 279 0.0 1.6 0.00 0.00 0.00 54 1013.1
20260504002506 10 279 0.0 1.6 0.00 0.00 0.00 54 1013.1
20260504002005 11 279 0.0 1.6 0.00 0.00 0.00 50 1013.0
20260504001518 11 264 0.0 1.6 0.00 0.00 0.00 50 1012.9
20260504001010 11 264 0.0 3.2 0.00 0.00 0.00 50 1012.9
20260504000505 12 274 0.0 3.2 0.00 0.00 0.00 46 1012.9
20260504000027 12 236 1.6 4.8 0.00 0.00 0.00 45 1012.8
20260503235509 13 273 1.6 4.8 0.00 0.00 0.00 43 1012.8
20260503235002 13 283 1.6 8.0 0.00 0.00 0.00 42 1012.7
20260503234513 13 280 4.8 8.0 0.00 0.00 0.00 40 1012.6
20260503234005 13 277 3.2 9.7 0.00 0.00 0.00 41 1012.6
20260503233505 13 287 4.8 9.7 0.00 0.00 0.00 40 1012.5
20260503233024 14 304 4.8 8.0 0.00 0.00 0.00 40 1012.5
20260503232505 14 252 3.2 8.0 0.00 0.00 0.00 39 1012.5
20260503232008 14 264 4.8 8.0 0.00 0.00 0.00 39 1012.5
20260503231526 15 321 3.2 12.9 0.00 0.00 0.00 38 1012.5
20260503231005 15 279 4.8 12.9 0.00 0.00 0.00 39 1012.5
20260503230502 15 303 6.4 16.1 0.00 0.00 0.00 37 1012.5
20260503230013 15 297 4.8 16.1 0.00 0.00 0.00 37 1012.6
20260503225505 15 281 6.4 17.7 0.00 0.00 0.00 39 1012.5
20260503225008 15 281 9.7 17.7 0.00 0.00 0.00 37 1012.4
20260503224525 15 295 8.0 16.1 0.00 0.00 0.00 36 1012.4
20260503224009 15 194 9.7 16.1 0.00 0.00 0.00 35 1012.4
20260503223510 15 261 8.0 14.5 0.00 0.00 0.00 36 1012.4
20260503223029 15 307 6.4 17.7 0.00 0.00 0.00 38 1012.4
20260503222505 15 222 8.0 25.7 0.00 0.00 0.00 37 1012.4
20260503222005 15 311 11.3 25.7 0.00 0.00 0.00 34 1012.3
20260503221517 15 306 9.7 20.9 0.00 0.00 0.00 36 1012.3
20260503221002 15 323 8.0 17.7 0.00 0.00 0.00 37 1012.3
20260503220502 15 293 6.4 19.3 0.00 0.00 0.00 40 1012.4
20260503220003 15 316 9.7 27.4 0.00 0.00 0.00 34 1012.5
20260503215503 15 302 12.9 27.4 0.00 0.00 0.00 34 1012.5
20260503215002 15 316 8.0 20.9 0.00 0.00 0.00 36 1012.5
20260503214512 15 295 11.3 22.5 0.00 0.00 0.00 35 1012.5
20260503214005 15 276 9.7 22.5 0.00 0.00 0.00 38 1012.5
20260503213506 15 301 11.3 22.5 0.00 0.00 0.00 35 1012.5
20260503213006 15 288 6.4 19.3 0.00 0.00 0.00 34 1012.5
20260503212502 15 310 8.0 24.1 0.00 0.00 0.00 36 1012.5
20260503212003 15 314 9.7 24.1 0.00 0.00 0.00 38 1012.4
20260503211506 15 311 9.7 20.9 0.00 0.00 0.00 37 1012.4
20260503211003 15 263 11.3 27.4 0.00 0.00 0.00 39 1012.3
20260503210503 15 330 11.3 27.4 0.00 0.00 0.00 36 1012.4
20260503210014 15 311 14.5 27.4 0.00 0.00 0.00 36 1012.3
20260503205503 15 298 12.9 25.7 0.00 0.00 0.00 38 1012.3
20260503205002 15 302 11.3 24.1 0.00 0.00 0.00 35 1012.4
20260503204503 15 337 14.5 27.4 0.00 0.00 0.00 38 1012.4
20260503204003 15 288 12.9 27.4 0.00 0.00 0.00 38 1012.3
20260503203503 15 323 12.9 25.7 0.00 0.00 0.00 38 1012.3
20260503203008 15 283 6.4 20.9 0.00 0.00 0.00 39 1012.3
20260503202503 15 313 11.3 20.9 0.00 0.00 0.00 34 1012.3
20260503202007 15 309 11.3 19.3 0.00 0.00 0.00 38 1012.4
20260503201520 15 297 8.0 25.7 0.00 0.00 0.00 37 1012.4
20260503201005 15 293 12.9 25.7 0.00 0.00 0.00 37 1012.5
20260503200502 15 295 14.5 25.7 0.00 0.00 0.00 37 1012.5
20260503200003 14 312 6.4 27.4 0.00 0.00 0.00 41 1012.8
20260503195504 14 320 12.9 32.2 0.00 0.00 0.00 36 1012.9
20260503195005 15 310 12.9 32.2 0.00 0.00 0.00 33 1012.9
20260503194511 15 304 11.3 20.9 0.00 0.00 0.00 39 1012.9
20260503194004 15 330 11.3 29.0 0.00 0.00 0.00 37 1012.9
20260503193507 15 311 8.0 29.0 0.00 0.00 0.00 39 1013.1
20260503193035 15 309 9.7 19.3 0.00 0.00 0.00 41 1013.0
20260503192503 14 324 4.8 22.5 0.00 0.00 0.00 37 1013.1
20260503192003 14 315 14.5 24.1 0.00 0.00 0.00 36 1013.2
20260503191503 14 317 6.4 24.1 0.00 0.00 0.00 39 1013.2
20260503191002 13 327 8.0 25.7 0.00 0.00 0.00 45 1013.3
20260503190503 14 315 12.9 25.7 0.00 0.00 0.00 36 1013.3
20260503190024 13 289 6.4 24.1 0.00 0.00 0.00 38 1013.3
20260503185507 13 297 9.7 27.4 0.00 0.00 0.00 42 1013.4
20260503185006 13 284 11.3 27.4 0.00 0.00 0.00 36 1013.5
20260503184504 13 309 11.3 24.1 0.00 0.00 0.00 38 1013.3
20260503184003 13 236 12.9 27.4 0.00 0.00 0.00 40 1013.5
20260503183503 12 300 16.1 27.4 0.00 0.00 0.00 40 1013.7
20260503183007 12 268 14.5 22.5 0.00 0.00 0.00 36 1013.7
20260503182505 12 301 11.3 22.5 0.00 0.00 0.00 40 1013.7
20260503182008 13 309 11.3 24.1 0.00 0.00 0.00 40 1013.7
20260503181517 13 295 17.7 24.1 0.00 0.00 0.00 38 1013.7
20260503181009 13 289 8.0 24.1 0.00 0.00 0.00 40 1013.7
20260503180506 13 300 9.7 24.1 0.00 0.00 0.00 42 1013.8
20260503180004 12 288 8.0 20.9 0.00 0.00 0.00 41 1013.7
20260503175504 12 313 12.9 22.5 0.00 0.00 0.00 39 1013.8
20260503175003 12 312 11.3 22.5 0.00 0.00 0.00 44 1014.0
20260503174511 12 293 9.7 27.4 0.00 0.00 0.00 43 1013.9
20260503174006 12 319 11.3 27.4 0.00 0.00 0.00 44 1014.1
20260503173507 12 310 9.7 20.9 0.00 0.00 0.00 45 1013.9
20260503173022 12 297 11.3 22.5 0.00 0.00 0.00 42 1014.0
20260503172509 12 268 14.5 24.1 0.00 0.00 0.00 45 1014.1
20260503172002 12 307 11.3 33.8 0.00 0.00 0.00 42 1014.2
20260503171503 12 290 12.9 33.8 0.00 0.00 0.00 42 1014.2
20260503171001 12 306 8.0 29.0 0.00 0.00 0.00 43 1014.3
20260503170505 12 306 11.3 30.6 0.00 0.00 0.00 45 1014.2
20260503151002 10 283 14.5 25.7 0.00 0.00 0.00 41 1015.1
20260503150505 9 285 9.7 24.1 0.00 0.00 0.00 42 1015.1
20260503131004 7 276 9.7 22.5 0.00 0.00 0.00 56 1015.4
20260503130503 7 274 8.0 20.9 0.00 0.00 0.00 56 1015.4
20260503110507 5 314 4.8 11.3 0.00 0.00 0.00 66 1014.4